Погода Брохово

Погода Брохово : погода сейчас, прогноз погоды и архив. Всё, что Вы хотите узнать о погоде Брохово!

Поиск расширенной информации на нашем сайте:

Другие новости

Новости СМИ2

Главная страница сайта

Новости сайта

03.07.2017

Напоминаем, что на нашем специализированном сайте Метеоцентр.Азия вы можете получить высокодетализированные автоматические прогнозы погоды по пунктам России, СНГ и мира в авиационном формате (включающие направление и скорость ветра, видимость, явления погоды, количество и форму облачности, нижнюю и верхнюю границу облачности).


Погода Брохово - сегодня

Время (UTC), дата Ветер
(°,м/с) 
Видим.   Явления Облачность Т
(°С)
Тd
(°С)
f(%) Тe
(°С)
Pmin
(гПа)
dP
(гПа)
Po
(мм)
O2
(г/м3)
Тmin Tmax R s Состояние
почвы
21 13.02.18 290 (З) 9-12{13}  1000 м  ливневой снег  10/10 600 м кучево-дожд. 
[Cb cap]
-11.7 -13 90 -19  989.5  1.2  734  310  -11.9    145  неравномерный
сухой снег
100% 
00 14.02.18 280 (З) 11-13{14}  0200 м  ливневой снег  10/10 600 м кучево-дожд. 
[Cb cap]
-12.5 -13.1 95 -21  980.8  1.3  735  312  -12.5         
09 14.02.18 280 (З) 9-10{12}  2000 м  слаб. ливневой снег  10/10 600 м кучево-дожд. 
[Cb cap]
-13.5 -45.7 5 -21  986  2.4  739  315    -11.9     
12 14.02.18 280 (З) 20000 м  позёмок{ливн. осадки}  9/9 600 м кучево-дожд. 
[Cb cap]
-14.7 -46.6 5 -22  987.4  740  317           
15 14.02.18 260 (З) 10 км  слаб. ливневой снег  10/10 600 м кучево-дожд. 
[Cb cap]
-13.6 -14.9 90 -20  988.6  1.3  741  315           
18 14.02.18 260 (З) 10 км  слаб. ливневой снег  10/10 600 м кучево-дожд. 
[Cb cap]
-13.3 -14.6 90 -18  989.9  1.3  742  316           
21 14.02.18 250 (З) 10 км  слаб. ливневой снег  10/10 600 м кучево-дожд. 
[Cb cap]
-13.8 -15.8 85 -16  991.6  1.7  743  317  -15.1    0.4  163  неравномерный
сухой снег
100% 
03 15.02.18 290 (З) 2000 м  слаб. ливневой снег  10/10 600 м кучево-дожд. 
[Cb cap]
-13 -14.3 90 -17  994.8  1.3  746  317           
06 15.02.18 300 (СЗ) 10 км  слаб. снег{ливн. осадки}  10/0 средняя 
[As op]
-14.4 -16.4 85 -18  996.5  1.7  747  319           
12 15.02.18 300 (СЗ) 20000 м  слаб. снег  10/0 верхняя 
[Cs]
-18.6 -20.5 85 -23  1000.8  2.4  750  326           
15 15.02.18 300 (СЗ) 20000 м  {снег}  ясно 
-20.2 -22.8 80 -27  1001.8  751  328           
18 15.02.18 300 (СЗ) 20000 м  {снег}  ясно 
-20.9 -23.4 80 -27  1002.9  1.1  752  330           
03 16.02.18 300 (СЗ) 20000 м    9/0 средняя, верхняя 
[Ac trans|Ci fib]
-19 -23.9 65 -23  1003.3  -0.7  752  327           
06 16.02.18 160 (Ю) 20000 м    ясно 
-25.1 -29.8 65 -28  1002.7  -0.6  752  335           
09 16.02.18 280 (З) 20000 м    ясно 
-24.4 -29.2 64 -32  1001.8  -0.9  751  334    -18.7       
12 16.02.18 280 (З) 20000 м  позёмок  ясно 
-22.7 -28.4 60 -30  1001.2  -0.7  750  332           
15 16.02.18 270 (З) 20000 м  позёмок  ясно 
-21.8 -22.4 95 -29  999.9  -1.2  749  330           
18 16.02.18 280 (З) 20000 м    ясно 
-24.2 -25.4 90 -31  999.3  -0.6  749  333           
00 17.02.18 210 (ЮЗ) 20000 м    ясно 
-24.5 -29.3 64 -28  1000.7  1.2  750  334  -27.2         
03 17.02.18 230 (ЮЗ) 20000 м    ясно 
-20.7 -23.9 75 -24  1000.4  -0.3  750  329           
06 17.02.18 240 (ЮЗ) 20000 м    ясно 
-19.2 -22.4 76 -23  1001.2  0.8  750  327           
09 17.02.18 270 (З) 20000 м    ясно 
-24 -25.6 87 -32  1001.9  751  333           
12 17.02.18 280 (З) 20000 м    ясно 
-24 -29.6 60 -29  1002.6  0.7  751  334           
15 17.02.18 250 (З) 20000 м    ясно 
-22.2 -24.2 84 -25  1002.6  751  331           
18 17.02.18 270 (З) 20000 м    ясно 
-22.1 -25 77 -27  1002.8  0.2  752  331           
Время (UTC), дата Ветер
(°,м/с) 
Видим.   Явления Облачность Т
(°С)
Тd
(°С)
f(%) Тe
(°С)
Pmin
(гПа)
dP
(гПа)
Po
(мм)
O2
(г/м3)
Тmin Tmax R s Состояние
почвы

Для получения пояснительной информации подведите курсор к названию столбца.

ПОГОДА Брохово - архив

Всё, что Вы хотите узнать о погоде Брохово - удобно и подробно!

Выберите нужную дату (начиная с 1 января 2015* года) и нажмите кнопку "Найти".
Будут отображены архивные сводки погоды по пункту Брохово, начиная с указанной даты.


Отображать данные в формате CSV (для использования в таблицах Excel)


Внимание! Наш архив погоды предназначен исключительно для личного некоммерческого использования в познавательных целях. Если Вам необходимы официальные справки о состоянии погоды (для производственных, юридических, коммерческих и т.п. целей), обращайтесь в органы Росгидромета.

*Примечание: данная дата относится к архиву по метеостанциям СССР (Россия, СНГ, Балтия).
Архив по метеостанциям Зарубежной Европы и Азии (кроме Китая) хранится 10 дней, по другим регионам земного шара (Китай, Африка, Америка, Австралия, Океания) - 1 день.

Брохово - район местоположения метеостанции


Название, широта, долгота, высота метеостанции:
Брохово 59.7°ш. 154.3°д. 5 м над ур. моря [Российская Федерация]

Дополнительная информация

В oтличие oт бoльшинства пoгoдных сайтoв мы публикуем пoдрoбную метеoинфoрмацию в детальнoм прoфессиoнальнoм фoрмате.

Характеристики температуры и влажнoсти вoздуха измеряются на высoте 2 м в тени вдали oт зданий и деревьев.
Скoрoсть ветра измеряется на высoте 10 м (на урoвне рoста челoвека скoрoсть ветра ниже в 1.5-2 раза). Если метеoстанция нахoдится в гoрoде или в лесу, тo скoрoсть ветра занижена на 2-4 м/с пo сравнению с oткрытым местoм. Скoрoсть ветра над акватoриями крупных рек и oзёр, а также на вершинах хoлмoв на 2-5 м/с выше, чем в oбычных услoвиях.
Атмoсфернoе давление в разных тoчках местнoсти мoжет значительнo oтличаться oт давления на метеoстанции, в зависимoсти oт услoвий рельефа (при пoдъёме на 10 м давление пoнижается примернo на 1 мм рт.ст.).